{"data":{"norad_id":52694,"epoch":"2026-09-19T19:24:57.928320Z","epoch_age_seconds":126158,"freshness":"FRESH","line1":"1 52694U 22053AQ  26262.80900380 -.00000416  00000+0 -10081-5 0  9991","line2":"2 52694  53.1604 338.0870 0001200  71.9624 288.1510 15.35395632240652","mean_motion":15.35395632,"eccentricity":0.00012,"inclination_deg":53.1604,"raan_deg":338.087,"arg_perigee_deg":71.9624,"mean_anomaly_deg":288.151,"bstar":-1.0081e-6,"rev_number":24065,"period_min":93.786902215181,"perigee_km":458.92506538551,"apogee_km":460.56615721222,"semimajor_km":6837.8826112989,"source":"CELESTRAK","updated_at":"2026-09-20T09:00:40.107343Z"}}